TimeCST,TemperatureF,Dew PointF,Humidity,Sea Level PressureIn,VisibilityMPH,Wind Direction,Wind SpeedMPH,Gust SpeedMPH,PrecipitationIn,Events,Conditions,WindDirDegrees,DateUTC
12:15 AM,46.6,20.7,36,30.16,10.0,WSW,4.6,-,N/A,,Clear,250,2014-02-08 06:15:00
12:35 AM,43.7,20.5,40,30.16,10.0,SSE,3.5,-,N/A,,Clear,160,2014-02-08 06:35:00
12:55 AM,41.5,20.3,43,30.16,10.0,Calm,Calm,-,N/A,,Clear,0,2014-02-08 06:55:00
1:15 AM,46.4,20.8,36,30.17,10.0,Calm,Calm,-,N/A,,Clear,0,2014-02-08 07:15:00
1:35 AM,48.0,22.1,36,30.17,10.0,Calm,Calm,-,N/A,,Clear,0,2014-02-08 07:35:00
1:55 AM,44.2,21.2,40,30.18,10.0,West,11.5,-,N/A,,Clear,260,2014-02-08 07:55:00
2:15 AM,44.2,21.2,40,30.18,10.0,West,12.7,-,N/A,,Clear,260,2014-02-08 08:15:00
2:35 AM,45.3,21.6,39,30.18,10.0,WSW,15.0,-,N/A,,Clear,250,2014-02-08 08:35:00
2:55 AM,44.4,21.2,40,30.17,10.0,West,15.0,-,N/A,,Clear,260,2014-02-08 08:55:00
3:15 AM,44.4,21.0,39,30.18,10.0,West,16.1,-,N/A,,Clear,260,2014-02-08 09:15:00
3:35 AM,44.1,21.0,40,30.19,10.0,WSW,13.8,-,N/A,,Clear,250,2014-02-08 09:35:00
3:55 AM,41.7,20.7,43,30.19,10.0,WSW,13.8,-,N/A,,Clear,250,2014-02-08 09:55:00
4:15 AM,41.9,20.8,43,30.18,10.0,WSW,10.4,-,N/A,,Clear,240,2014-02-08 10:15:00
4:35 AM,39.9,20.7,46,30.19,10.0,WSW,9.2,-,N/A,,Clear,240,2014-02-08 10:35:00
4:55 AM,40.1,20.8,46,30.19,10.0,SW,6.9,-,N/A,,Clear,230,2014-02-08 10:55:00
5:15 AM,38.1,21.0,50,30.19,10.0,WSW,10.4,-,N/A,,Clear,240,2014-02-08 11:15:00
5:35 AM,39.4,21.2,48,30.18,10.0,WSW,9.2,-,N/A,,Clear,250,2014-02-08 11:35:00
5:55 AM,39.6,21.2,48,30.18,10.0,WSW,9.2,-,N/A,,Clear,240,2014-02-08 11:55:00
6:15 AM,39.4,21.2,48,30.19,10.0,WSW,9.2,-,N/A,,Clear,240,2014-02-08 12:15:00
6:35 AM,39.4,21.4,49,30.19,10.0,WSW,10.4,-,N/A,,Clear,240,2014-02-08 12:35:00
6:55 AM,39.4,21.2,48,30.19,10.0,SW,8.1,-,N/A,,Clear,230,2014-02-08 12:55:00
7:15 AM,37.8,21.2,51,30.20,10.0,WSW,10.4,-,N/A,,Clear,240,2014-02-08 13:15:00
7:35 AM,38.3,21.0,50,30.20,10.0,SW,8.1,-,N/A,,Clear,230,2014-02-08 13:35:00
7:55 AM,41.4,21.6,45,30.22,10.0,WSW,8.1,-,N/A,,Clear,240,2014-02-08 13:55:00
8:15 AM,43.5,21.6,42,30.22,10.0,SW,11.5,-,N/A,,Clear,230,2014-02-08 14:15:00
8:35 AM,47.3,21.6,36,30.23,10.0,SW,10.4,-,N/A,,Clear,220,2014-02-08 14:35:00
8:55 AM,48.4,21.7,35,30.23,10.0,SW,6.9,-,N/A,,Clear,230,2014-02-08 14:55:00
9:15 AM,52.2,21.7,30,30.23,10.0,WSW,11.5,-,N/A,,Clear,250,2014-02-08 15:15:00
9:35 AM,54.9,21.9,28,30.23,10.0,WSW,15.0,18.4,N/A,,Clear,240,2014-02-08 15:35:00
9:55 AM,55.9,21.9,27,30.22,10.0,WSW,23.0,29.9,N/A,,Clear,240,2014-02-08 15:55:00
10:15 AM,57.7,22.3,25,30.23,10.0,WSW,20.7,25.3,N/A,,Clear,240,2014-02-08 16:15:00
10:35 AM,58.3,22.1,25,30.23,10.0,WSW,18.4,25.3,N/A,,Clear,250,2014-02-08 16:35:00
10:55 AM,59.4,21.9,24,30.23,10.0,West,23.0,32.2,N/A,,Clear,260,2014-02-08 16:55:00
11:15 AM,59.4,21.4,23,30.22,10.0,WSW,21.9,27.6,N/A,,Clear,250,2014-02-08 17:15:00
11:35 AM,61.2,20.7,21,30.24,10.0,WSW,13.8,21.9,N/A,,Clear,250,2014-02-08 17:35:00
11:55 AM,62.4,20.7,20,30.23,10.0,WSW,10.4,18.4,N/A,,Clear,250,2014-02-08 17:55:00
12:15 PM,64.9,13.3,13,30.22,10.0,West,19.6,25.3,N/A,,Clear,270,2014-02-08 18:15:00
12:35 PM,65.8,15.4,14,30.22,10.0,West,20.7,25.3,N/A,,Clear,270,2014-02-08 18:35:00
12:55 PM,66.0,16.2,15,30.23,10.0,West,17.3,27.6,N/A,,Clear,270,2014-02-08 18:55:00
1:15 PM,66.7,16.9,15,30.21,10.0,West,19.6,27.6,N/A,,Clear,270,2014-02-08 19:15:00
1:35 PM,67.5,14.9,13,30.20,10.0,West,19.6,26.5,N/A,,Clear,260,2014-02-08 19:35:00
1:55 PM,66.7,11.3,12,30.19,10.0,West,19.6,28.8,N/A,,Clear,280,2014-02-08 19:55:00
2:15 PM,67.1,9.3,11,30.19,10.0,West,23.0,31.1,N/A,,Clear,280,2014-02-08 20:15:00
2:35 PM,67.1,11.5,12,30.18,10.0,West,21.9,34.5,N/A,,Clear,270,2014-02-08 20:35:00
2:55 PM,67.5,13.1,12,30.17,10.0,West,20.7,35.7,N/A,,Clear,260,2014-02-08 20:55:00
3:15 PM,68.0,14.0,12,30.17,10.0,West,17.3,32.2,N/A,,Clear,260,2014-02-08 21:15:00
3:35 PM,67.3,14.7,13,30.17,10.0,West,20.7,29.9,N/A,,Clear,280,2014-02-08 21:35:00
3:55 PM,67.8,15.6,13,30.16,10.0,West,19.6,25.3,N/A,,Clear,270,2014-02-08 21:55:00
4:15 PM,67.3,14.4,13,30.16,10.0,West,16.1,26.5,N/A,,Clear,280,2014-02-08 22:15:00
4:35 PM,66.9,15.4,14,30.18,10.0,West,16.1,25.3,N/A,,Clear,270,2014-02-08 22:35:00
4:55 PM,67.1,16.3,14,30.17,10.0,West,20.7,25.3,N/A,,Clear,280,2014-02-08 22:55:00
5:15 PM,66.2,16.7,15,30.17,10.0,West,21.9,27.6,N/A,,Clear,280,2014-02-08 23:15:00
5:35 PM,65.3,16.7,15,30.17,10.0,West,24.2,-,N/A,,Clear,270,2014-02-08 23:35:00
5:55 PM,64.2,17.2,16,30.17,10.0,West,17.3,26.5,N/A,,Clear,270,2014-02-08 23:55:00
6:15 PM,62.6,17.2,17,30.18,10.0,West,15.0,-,N/A,,Clear,270,2014-02-09 00:15:00
6:35 PM,60.1,17.2,19,30.19,10.0,West,10.4,13.8,N/A,,Clear,260,2014-02-09 00:35:00
6:55 PM,58.8,18.3,21,30.20,10.0,West,10.4,16.1,N/A,,Clear,260,2014-02-09 00:55:00
7:15 PM,58.6,18.1,21,30.21,10.0,West,6.9,-,N/A,,Clear,260,2014-02-09 01:15:00
7:35 PM,57.4,17.8,21,30.21,10.0,WSW,10.4,-,N/A,,Clear,250,2014-02-09 01:35:00
7:55 PM,57.9,17.6,21,30.21,10.0,WSW,12.7,-,N/A,,Clear,250,2014-02-09 01:55:00
8:15 PM,58.1,17.1,20,30.22,10.0,West,13.8,-,N/A,,Clear,260,2014-02-09 02:15:00
8:35 PM,58.5,16.9,20,30.22,10.0,West,13.8,-,N/A,,Clear,260,2014-02-09 02:35:00
8:55 PM,56.8,17.2,21,30.23,10.0,West,11.5,-,N/A,,Clear,260,2014-02-09 02:55:00
9:15 PM,54.7,16.7,22,30.24,10.0,Calm,Calm,-,N/A,,Clear,0,2014-02-09 03:15:00
9:35 PM,54.7,16.5,22,30.24,10.0,Calm,Calm,-,N/A,,Clear,0,2014-02-09 03:35:00
9:55 PM,54.5,16.7,23,30.24,10.0,South,6.9,-,N/A,,Clear,180,2014-02-09 03:55:00
10:15 PM,51.8,16.5,25,30.24,10.0,South,4.6,-,N/A,,Clear,180,2014-02-09 04:15:00
10:35 PM,51.3,16.7,25,30.23,10.0,WSW,10.4,-,N/A,,Clear,250,2014-02-09 04:35:00
10:55 PM,50.2,15.8,26,30.24,10.0,Calm,Calm,-,N/A,,Clear,0,2014-02-09 04:55:00
11:15 PM,48.9,16.2,27,30.23,10.0,SW,8.1,-,N/A,,Clear,230,2014-02-09 05:15:00
11:35 PM,55.0,16.0,22,30.22,10.0,WSW,16.1,-,N/A,,Clear,250,2014-02-09 05:35:00
11:55 PM,54.9,16.0,22,30.22,10.0,West,13.8,-,N/A,,Clear,260,2014-02-09 05:55:00